#timestamp,LO_Frequency,Hit,StdDev 
1594526415.2,286047001.9,N
1594526435.0,286047002.5,N
1594526435.9,286047002.5,N
1594526455.8,286047000.2,N
1594526475.6,286046999.9,N
1594526495.5,286047002.1,N
1594526515.3,286047004.0,N
1594526535.1,286047004.0,N
1594526555.9,286047002.0,N
1594526575.7,286047001.0,N
1594526595.6,286047002.5,N
1594526615.4,286047002.7,N
1594526635.2,286047000.2,N
1594526655.1,286047002.6,N
1594526656.0,286047002.6,N
1594526675.8,286047001.9,N
1594526695.7,286046999.7,N
1594526715.5,286046999.7,N
1594526735.3,286047002.4,N
1594526755.2,286047001.7,N
1594526775.0,286047000.8,N
1594526775.9,286047000.8,N
1594526795.8,286046998.7,N
1594526815.6,286046998.2,N
1594526835.4,286046999.8,N
1594526855.3,286046998.2,N
1594526875.1,286047002.3,N
1594526895.8,286047001.7,N
1594526915.7,286047003.2,N
1594526935.5,286047002.9,N
1594526955.4,286047002.9,N
1594526975.2,286047001.6,N
1594526995.0,286047002.4,N
1594526995.9,286047002.4,N
1594527015.8,286047003.1,N
1594527035.6,286047001.3,N
1594527055.5,286047002.0,N
1594527075.3,286047001.3,N
1594527095.1,286047005.0,Y
1594527115.9,286047002.8,P
1594527135.7,286047000.6,N
1594527155.6,286047002.1,N
1594527175.4,286047002.1,N
1594527195.2,286047001.6,N
1594527215.1,286047002.8,Y
1594527216.0,286047002.8,P
1594527235.8,286047000.9,N
1594527255.6,286046999.9,N
1594527275.5,286047002.3,N
1594527295.3,286046998.9,N
1594527315.2,286046997.6,N
1594527335.9,286046997.6,N
1594527355.7,286046997.8,N
1594527375.6,286046995.0,N
1594527395.4,286046997.8,N
1594527415.3,286046995.2,N
1594527435.1,286046994.5,N
1594527455.8,286046995.1,N
1594527475.7,286046995.2,N
1594527495.5,286046997.6,N
1594527515.4,286046995.6,N
1594527535.2,286046996.1,N
1594527555.0,286046995.9,N
1594527555.9,286046995.9,N
1594527575.8,286046994.7,N
1594527595.6,286046993.5,N
1594527615.5,286046991.8,Y
1594527635.3,286046993.3,P
1594527655.1,286046996.2,N
1594527675.9,286046993.3,P
1594527695.7,286046994.2,Y
1594527715.6,286046997.1,P
1594527735.4,286046997.6,N
1594527755.2,286046994.9,P
1594527775.1,286046995.6,Y
1594527776.0,286046995.6,P
1594527795.8,286046999.9,N
1594527815.7,286047002.2,N
1594527835.5,286046998.9,N
1594527855.3,286047001.2,N
1594527875.2,286046999.5,N
1594527895.0,286046999.0,N
1594527895.9,286046999.0,N
1594527915.8,286046998.7,N
1594527935.6,286046999.6,N
1594527955.4,286046999.3,N
1594527975.3,286046999.2,N
1594527995.1,286046999.1,N
1594528015.9,286046999.1,N
1594528035.7,286046996.7,N
1594528055.5,286046999.6,N
1594528075.4,286046999.1,N
1594528095.2,286046997.1,N
1594528115.0,286047001.0,N
1594528115.9,286047001.0,N
1594528135.8,286046998.6,N
1594528155.6,286047000.8,N
1594528175.5,286047002.4,N
1594528195.3,286046999.7,N
1594528215.1,286047003.9,N
1594528235.9,286047001.4,N
1594528255.7,286047005.7,Y
1594528275.6,286047005.8,P
1594528295.4,286047005.3,N
1594528315.2,286047005.8,N
1594528335.1,286047005.8,N
1594528336.0,286047005.8,N
1594528355.8,286047005.9,N
1594528375.6,286047004.6,N
1594528395.5,286047003.4,N
1594528415.3,286047005.2,N
1594528435.2,286047005.2,N
1594528455.9,286047004.5,N
1594528475.7,286047007.6,Y
1594528495.6,286047001.7,P
1594528515.4,286047000.1,N
1594528535.3,286047000.6,N
1594528555.2,286047002.3,N
1594528575.0,286047001.6,N
1594528575.9,286047001.6,N
1594528595.7,286046999.4,N
1594528615.6,286046999.5,N
1594528635.4,286046999.8,N
1594528655.3,286047001.6,N
1594528675.1,286047003.9,N
1594528695.9,286047001.5,N
1594528715.7,286047000.5,N
1594528735.6,286047001.4,N
1594528755.4,286047003.5,N
1594528775.2,286046999.9,N
1594528795.1,286047001.1,N
1594528796.0,286047001.1,N
1594528815.8,286047001.7,N
1594528835.7,286047000.6,N
1594528855.5,286047000.0,N
1594528875.3,286046999.8,N
1594528895.2,286047002.1,N
1594528915.0,286047005.2,Y
1594528915.9,286047005.2,P
1594528935.8,286047000.3,N
1594528955.6,286047002.8,N
1594528975.4,286046999.7,N
1594528995.3,286047001.1,N
1594529015.1,286047000.2,N
1594529035.8,286047000.1,N
1594529055.7,286047002.7,N
1594529075.5,286047003.9,N
1594529095.6,286047005.7,Y
1594529115.5,286047003.6,P
1594529135.3,286047002.8,N
1594529155.1,286046999.2,N
1594529175.9,286047001.0,N
1594529195.7,286047000.9,N
1594529215.5,286047000.0,N
1594529235.4,286047001.5,N
1594529255.2,286047003.5,N
1594529275.1,286047003.6,N
1594529276.0,286047003.6,N
1594529295.8,286047001.3,N
1594529315.6,286047002.8,N
1594529335.5,286047004.4,Y
1594529355.3,286047001.4,P
1594529375.2,286047002.3,P
1594529395.9,286047003.2,P
1594529415.7,286047003.3,Y
1594529435.6,286046999.7,P
1594529455.4,286047001.2,N
1594529475.2,286047000.2,N
1594529495.1,286047001.2,N
1594529496.0,286047001.2,N
1594529515.8,286046999.9,N
1594529535.7,286047001.6,N
1594529555.5,286047001.7,N
1594529575.3,286047002.0,N
1594529595.2,286047001.0,N
1594529615.0,286046997.7,N
1594529615.9,286046997.7,N
1594529635.8,286046995.5,Y
1594529655.6,286046994.1,P
1594529675.4,286046993.6,N
1594529695.3,286046995.3,N
1594529715.1,286046994.9,N
1594529735.9,286046995.1,N
1594529755.7,286046996.9,N
1594529775.5,286046999.2,N
1594529795.4,286046999.3,N
1594529815.2,286046999.6,N
1594529835.0,286046996.6,N
1594529835.9,286046996.6,N
1594529855.8,286046999.1,N
1594529875.6,286046998.7,N
1594529895.5,286046999.3,N
1594529915.3,286046999.6,N
1594529935.1,286046996.5,N
1594529955.9,286046998.9,N
1594529975.7,286047000.7,N
1594529995.6,286046999.7,N
